owner,sensor,date,latitude,longitude,vertical_datum,wind_speed,wind_to_direction,wind_speed_of_gust,qcFlag 
COAPS,ioos:station:COAPS:N7:2,2012-04-12T01:28:00Z,29.6619,-84.3731,19.0,2.419,215.3,-9999.0,'1111122,1111122,1111122' 
COAPS,ioos:station:COAPS:N7:2,2012-04-12T01:29:00Z,29.6619,-84.3731,19.0,2.306,216.7,-9999.0,'1111122,1111122,1111122' 
COAPS,ioos:station:COAPS:N7:2,2012-04-12T01:30:00Z,29.6619,-84.3731,19.0,2.04,216.0,-9999.0,'1111122,1111122,1111122' 
COAPS,ioos:station:COAPS:N7:2,2012-04-12T01:31:00Z,29.6619,-84.3731,19.0,2.164,217.9,-9999.0,'1111122,1111122,1111122' 
COAPS,ioos:station:COAPS:N7:2,2012-04-22T22:28:00Z,29.6619,-84.3731,19.0,3.441,276.5,-9999.0,'1111122,1111122,1111122' 
COAPS,ioos:station:COAPS:N7:2,2012-04-22T22:29:00Z,29.6619,-84.3731,19.0,3.188,276.3,-9999.0,'1111122,1111122,1111122' 
COAPS,ioos:station:COAPS:N7:2,2012-04-22T22:30:00Z,29.6619,-84.3731,19.0,2.909,282.7,-9999.0,'1111122,1111122,1111122' 
COAPS,ioos:station:COAPS:N7:2,2012-04-22T22:31:00Z,29.6619,-84.3731,19.0,2.876,286.6,-9999.0,'1111122,1111122,1111122' 
COAPS,ioos:station:COAPS:N7:2,2012-04-22T22:32:00Z,29.6619,-84.3731,19.0,2.8,285.2,-9999.0,'1111122,1111122,1111122' 
COAPS,ioos:station:COAPS:N7:2,2012-04-22T22:33:00Z,29.6619,-84.3731,19.0,3.272,272.3,-9999.0,'1111122,1111122,1111122' 
COAPS,ioos:station:COAPS:N7:2,2012-04-22T22:34:00Z,29.6619,-84.3731,19.0,3.541,268.0,-9999.0,'1111122,1111122,1111122' 
COAPS,ioos:station:COAPS:N7:2,2012-04-22T22:35:00Z,29.6619,-84.3731,19.0,3.064,268.1,-9999.0,'1111122,1111122,1111122' 
COAPS,ioos:station:COAPS:N7:2,2012-04-22T22:36:00Z,29.6619,-84.3731,19.0,3.995,268.8,-9999.0,'1111122,1111122,1111122' 
COAPS,ioos:station:COAPS:N7:2,2012-04-22T22:37:00Z,29.6619,-84.3731,19.0,4.573,263.7,-9999.0,'1111122,1111122,1111122' 
COAPS,ioos:station:COAPS:N7:2,2012-04-29T02:22:00Z,29.6619,-84.3731,19.0,0.02,242.6,-9999.0,'1111122,1111122,1111122' 
COAPS,ioos:station:COAPS:N7:2,2012-04-29T02:23:00Z,29.6619,-84.3731,19.0,0.02,242.3,-9999.0,'1111122,1111122,1111122' 
COAPS,ioos:station:COAPS:N7:2,2012-04-29T02:24:00Z,29.6619,-84.3731,19.0,0.02,243.9,-9999.0,'1111122,1111122,1111122' 
COAPS,ioos:station:COAPS:N7:2,2012-04-29T02:25:00Z,29.6619,-84.3731,19.0,0.02,244.1,-9999.0,'1111122,1111122,1111122' 
COAPS,ioos:station:COAPS:N7:2,2012-04-29T02:26:00Z,29.6619,-84.3731,19.0,0.02,242.9,-9999.0,'1111122,1111122,1111122' 
COAPS,ioos:station:COAPS:N7:2,2012-04-29T02:27:00Z,29.6619,-84.3731,19.0,0.02,243.5,-9999.0,'1111122,1111122,1111122' 
COAPS,ioos:station:COAPS:N7:2,2012-04-29T02:28:00Z,29.6619,-84.3731,19.0,0.02,242.8,-9999.0,'1111122,1111122,1111122' 
COAPS,ioos:station:COAPS:N7:2,2012-04-29T02:29:00Z,29.6619,-84.3731,19.0,0.02,243.8,-9999.0,'1111122,1111122,1111122' 
COAPS,ioos:station:COAPS:N7:2,2012-04-29T02:30:00Z,29.6619,-84.3731,19.0,0.02,244.3,-9999.0,'1111122,1111122,1111122' 
COAPS,ioos:station:COAPS:N7:2,2012-04-29T02:31:00Z,29.6619,-84.3731,19.0,0.02,244.0,-9999.0,'1111122,1111122,1111122' 
COAPS,ioos:station:COAPS:N7:2,2012-04-29T02:32:00Z,29.6619,-84.3731,19.0,0.02,244.3,-9999.0,'1111122,1111122,1111122' 
COAPS,ioos:station:COAPS:N7:2,2012-04-29T02:33:00Z,29.6619,-84.3731,19.0,0.02,244.4,-9999.0,'1111122,1111122,1111122' 
COAPS,ioos:station:COAPS:N7:2,2012-04-29T02:34:00Z,29.6619,-84.3731,19.0,0.02,247.1,-9999.0,'1111122,1111122,1111122' 
COAPS,ioos:station:COAPS:N7:2,2012-04-29T02:35:00Z,29.6619,-84.3731,19.0,0.02,245.4,-9999.0,'1111122,1111122,1111122' 
COAPS,ioos:station:COAPS:N7:2,2012-04-29T02:36:00Z,29.6619,-84.3731,19.0,0.02,244.9,-9999.0,'1111122,1111122,1111122' 
COAPS,ioos:station:COAPS:N7:2,2012-04-29T02:37:00Z,29.6619,-84.3731,19.0,0.02,245.5,-9999.0,'1111122,1111122,1111122' 
COAPS,ioos:station:COAPS:N7:2,2012-04-29T02:38:00Z,29.6619,-84.3731,19.0,0.02,245.7,-9999.0,'1111122,1111122,1111122' 
COAPS,ioos:station:COAPS:N7:2,2012-04-29T02:39:00Z,29.6619,-84.3731,19.0,0.02,245.8,-9999.0,'1111122,1111122,1111122' 
COAPS,ioos:station:COAPS:N7:2,2012-04-29T02:40:00Z,29.6619,-84.3731,19.0,0.02,247.2,-9999.0,'1111122,1111122,1111122' 
COAPS,ioos:station:COAPS:N7:2,2012-04-29T02:41:00Z,29.6619,-84.3731,19.0,0.02,246.9,-9999.0,'1111122,1111122,1111122' 
COAPS,ioos:station:COAPS:N7:2,2012-04-29T02:42:00Z,29.6619,-84.3731,19.0,0.02,246.3,-9999.0,'1111122,1111122,1111122' 
COAPS,ioos:station:COAPS:N7:2,2012-04-29T02:43:00Z,29.6619,-84.3731,19.0,0.02,245.9,-9999.0,'1111122,1111122,1111122' 
COAPS,ioos:station:COAPS:N7:2,2012-04-29T02:44:00Z,29.6619,-84.3731,19.0,0.02,246.1,-9999.0,'1111122,1111122,1111122' 
COAPS,ioos:station:COAPS:N7:2,2012-04-29T02:45:00Z,29.6619,-84.3731,19.0,0.02,245.8,-9999.0,'1111122,1111122,1111122' 
COAPS,ioos:station:COAPS:N7:2,2012-04-29T02:46:00Z,29.6619,-84.3731,19.0,0.02,245.6,-9999.0,'1111122,1111122,1111122' 
COAPS,ioos:station:COAPS:N7:2,2012-04-29T02:47:00Z,29.6619,-84.3731,19.0,0.02,246.4,-9999.0,'1111122,1111122,1111122' 
COAPS,ioos:station:COAPS:N7:2,2012-04-29T02:48:00Z,29.6619,-84.3731,19.0,0.02,246.7,-9999.0,'1111122,1111122,1111122' 
COAPS,ioos:station:COAPS:N7:2,2012-04-29T02:49:00Z,29.6619,-84.3731,19.0,0.02,246.2,-9999.0,'1111122,1111122,1111122' 
COAPS,ioos:station:COAPS:N7:2,2012-04-29T02:50:00Z,29.6619,-84.3731,19.0,0.02,245.9,-9999.0,'1111122,1111122,1111122' 
COAPS,ioos:station:COAPS:N7:2,2012-04-29T02:51:00Z,29.6619,-84.3731,19.0,0.02,244.1,-9999.0,'1111122,1111122,1111122' 
COAPS,ioos:station:COAPS:N7:2,2012-04-29T02:52:00Z,29.6619,-84.3731,19.0,0.02,242.5,-9999.0,'1111122,1111122,1111122' 
COAPS,ioos:station:COAPS:N7:2,2012-04-29T02:53:00Z,29.6619,-84.3731,19.0,0.02,241.5,-9999.0,'1111122,1111122,1111122' 
COAPS,ioos:station:COAPS:N7:2,2012-04-29T02:54:00Z,29.6619,-84.3731,19.0,0.02,241.9,-9999.0,'1111122,1111122,1111122' 
COAPS,ioos:station:COAPS:N7:2,2012-04-29T02:55:00Z,29.6619,-84.3731,19.0,0.02,242.5,-9999.0,'1111122,1111122,1111122' 
COAPS,ioos:station:COAPS:N7:2,2012-04-29T02:56:00Z,29.6619,-84.3731,19.0,0.02,242.9,-9999.0,'1111122,1111122,1111122' 
COAPS,ioos:station:COAPS:N7:2,2012-04-29T02:57:00Z,29.6619,-84.3731,19.0,0.02,242.3,-9999.0,'1111122,1111122,1111122' 
COAPS,ioos:station:COAPS:N7:2,2012-04-29T02:58:00Z,29.6619,-84.3731,19.0,0.02,242.7,-9999.0,'1111122,1111122,1111122' 
COAPS,ioos:station:COAPS:N7:2,2012-04-29T02:59:00Z,29.6619,-84.3731,19.0,0.02,243.5,-9999.0,'1111122,1111122,1111122' 
COAPS,ioos:station:COAPS:N7:2,2012-04-29T03:00:00Z,29.6619,-84.3731,19.0,0.02,242.3,-9999.0,'1111122,1111122,1111122' 
COAPS,ioos:station:COAPS:N7:2,2012-04-29T03:01:00Z,29.6619,-84.3731,19.0,0.02,242.0,-9999.0,'1111122,1111122,1111122' 
COAPS,ioos:station:COAPS:N7:2,2012-04-29T03:02:00Z,29.6619,-84.3731,19.0,0.02,243.2,-9999.0,'1111122,1111122,1111122' 
COAPS,ioos:station:COAPS:N7:2,2012-04-29T03:03:00Z,29.6619,-84.3731,19.0,0.02,244.5,-9999.0,'1111122,1111122,1111122' 
COAPS,ioos:station:COAPS:N7:2,2012-04-29T03:04:00Z,29.6619,-84.3731,19.0,0.02,245.1,-9999.0,'1111122,1111122,1111122' 
COAPS,ioos:station:COAPS:N7:2,2012-04-29T03:05:00Z,29.6619,-84.3731,19.0,0.02,245.3,-9999.0,'1111122,1111122,1111122' 
COAPS,ioos:station:COAPS:N7:2,2012-04-29T03:06:00Z,29.6619,-84.3731,19.0,0.02,245.5,-9999.0,'1111122,1111122,1111122' 
COAPS,ioos:station:COAPS:N7:2,2012-04-29T03:07:00Z,29.6619,-84.3731,19.0,0.02,244.6,-9999.0,'1111122,1111122,1111122' 
COAPS,ioos:station:COAPS:N7:2,2012-04-29T03:08:00Z,29.6619,-84.3731,19.0,0.02,243.6,-9999.0,'1111122,1111122,1111122' 
COAPS,ioos:station:COAPS:N7:2,2012-04-29T03:09:00Z,29.6619,-84.3731,19.0,0.02,243.6,-9999.0,'1111122,1111122,1111122' 
COAPS,ioos:station:COAPS:N7:2,2012-04-29T03:10:00Z,29.6619,-84.3731,19.0,0.02,243.3,-9999.0,'1111122,1111122,1111122' 
COAPS,ioos:station:COAPS:N7:2,2012-04-29T03:11:00Z,29.6619,-84.3731,19.0,0.02,243.7,-9999.0,'1111122,1111122,1111122' 
COAPS,ioos:station:COAPS:N7:2,2012-04-29T03:12:00Z,29.6619,-84.3731,19.0,0.02,244.1,-9999.0,'1111122,1111122,1111122' 
COAPS,ioos:station:COAPS:N7:2,2012-04-29T03:13:00Z,29.6619,-84.3731,19.0,0.02,244.2,-9999.0,'1111122,1111122,1111122' 
COAPS,ioos:station:COAPS:N7:2,2012-04-29T03:14:00Z,29.6619,-84.3731,19.0,0.02,243.3,-9999.0,'1111122,1111122,1111122' 
COAPS,ioos:station:COAPS:N7:2,2012-04-29T03:15:00Z,29.6619,-84.3731,19.0,0.02,242.8,-9999.0,'1111122,1111122,1111122' 
COAPS,ioos:station:COAPS:N7:2,2012-04-29T03:16:00Z,29.6619,-84.3731,19.0,0.02,242.4,-9999.0,'1111122,1111122,1111122' 
COAPS,ioos:station:COAPS:N7:2,2012-04-29T03:17:00Z,29.6619,-84.3731,19.0,0.02,242.2,-9999.0,'1111122,1111122,1111122' 
COAPS,ioos:station:COAPS:N7:2,2012-04-29T03:18:00Z,29.6619,-84.3731,19.0,0.02,241.6,-9999.0,'1111122,1111122,1111122' 
COAPS,ioos:station:COAPS:N7:2,2012-04-29T03:19:00Z,29.6619,-84.3731,19.0,0.02,240.8,-9999.0,'1111122,1111122,1111122' 
COAPS,ioos:station:COAPS:N7:2,2012-04-29T03:20:00Z,29.6619,-84.3731,19.0,0.02,240.4,-9999.0,'1111122,1111122,1111122' 
COAPS,ioos:station:COAPS:N7:2,2012-04-29T03:21:00Z,29.6619,-84.3731,19.0,0.02,240.4,-9999.0,'1111122,1111122,1111122' 
COAPS,ioos:station:COAPS:N7:2,2012-04-29T03:22:00Z,29.6619,-84.3731,19.0,0.02,241.6,-9999.0,'1111122,1111122,1111122' 
COAPS,ioos:station:COAPS:N7:2,2012-04-29T03:23:00Z,29.6619,-84.3731,19.0,0.02,242.8,-9999.0,'1111122,1111122,1111122' 
COAPS,ioos:station:COAPS:N7:2,2012-04-29T03:24:00Z,29.6619,-84.3731,19.0,0.02,244.5,-9999.0,'1111122,1111122,1111122' 
COAPS,ioos:station:COAPS:N7:2,2012-04-29T03:25:00Z,29.6619,-84.3731,19.0,0.02,244.4,-9999.0,'1111122,1111122,1111122' 
COAPS,ioos:station:COAPS:N7:2,2012-04-29T03:26:00Z,29.6619,-84.3731,19.0,0.02,243.4,-9999.0,'1111122,1111122,1111122' 
COAPS,ioos:station:COAPS:N7:2,2012-04-29T03:27:00Z,29.6619,-84.3731,19.0,0.02,243.5,-9999.0,'1111122,1111122,1111122' 
COAPS,ioos:station:COAPS:N7:2,2012-04-29T03:28:00Z,29.6619,-84.3731,19.0,0.02,243.0,-9999.0,'1111122,1111122,1111122' 
COAPS,ioos:station:COAPS:N7:2,2012-04-29T03:29:00Z,29.6619,-84.3731,19.0,0.02,243.5,-9999.0,'1111122,1111122,1111122' 
COAPS,ioos:station:COAPS:N7:2,2012-04-29T03:30:00Z,29.6619,-84.3731,19.0,0.02,244.5,-9999.0,'1111122,1111122,1111122' 
COAPS,ioos:station:COAPS:N7:2,2012-04-29T03:31:00Z,29.6619,-84.3731,19.0,0.02,244.1,-9999.0,'1111122,1111122,1111122' 
COAPS,ioos:station:COAPS:N7:2,2012-04-29T03:32:00Z,29.6619,-84.3731,19.0,0.02,244.4,-9999.0,'1111122,1111122,1111122' 
COAPS,ioos:station:COAPS:N7:2,2012-04-29T03:33:00Z,29.6619,-84.3731,19.0,0.02,245.7,-9999.0,'1111122,1111122,1111122' 
COAPS,ioos:station:COAPS:N7:2,2012-04-29T03:34:00Z,29.6619,-84.3731,19.0,0.02,246.7,-9999.0,'1111122,1111122,1111122' 
COAPS,ioos:station:COAPS:N7:2,2012-04-29T03:35:00Z,29.6619,-84.3731,19.0,0.02,249.3,-9999.0,'1111122,1111122,1111122' 
COAPS,ioos:station:COAPS:N7:2,2012-04-29T03:36:00Z,29.6619,-84.3731,19.0,0.02,250.1,-9999.0,'1111122,1111122,1111122' 
COAPS,ioos:station:COAPS:N7:2,2012-04-29T03:37:00Z,29.6619,-84.3731,19.0,0.02,249.0,-9999.0,'1111122,1111122,1111122' 
COAPS,ioos:station:COAPS:N7:2,2012-04-29T03:38:00Z,29.6619,-84.3731,19.0,0.02,249.1,-9999.0,'1111122,1111122,1111122' 
COAPS,ioos:station:COAPS:N7:2,2012-04-29T03:39:00Z,29.6619,-84.3731,19.0,0.02,248.0,-9999.0,'1111122,1111122,1111122' 
COAPS,ioos:station:COAPS:N7:2,2012-04-29T03:40:00Z,29.6619,-84.3731,19.0,0.02,247.7,-9999.0,'1111122,1111122,1111122' 
COAPS,ioos:station:COAPS:N7:2,2012-04-29T03:41:00Z,29.6619,-84.3731,19.0,0.02,248.5,-9999.0,'1111122,1111122,1111122' 
COAPS,ioos:station:COAPS:N7:2,2012-04-29T03:42:00Z,29.6619,-84.3731,19.0,0.02,248.0,-9999.0,'1111122,1111122,1111122' 
COAPS,ioos:station:COAPS:N7:2,2012-04-29T03:43:00Z,29.6619,-84.3731,19.0,0.02,248.2,-9999.0,'1111122,1111122,1111122' 
COAPS,ioos:station:COAPS:N7:2,2012-04-29T03:44:00Z,29.6619,-84.3731,19.0,0.02,250.0,-9999.0,'1111122,1111122,1111122' 
COAPS,ioos:station:COAPS:N7:2,2012-04-29T03:45:00Z,29.6619,-84.3731,19.0,0.02,251.2,-9999.0,'1111122,1111122,1111122' 
COAPS,ioos:station:COAPS:N7:2,2012-04-29T03:46:00Z,29.6619,-84.3731,19.0,0.02,251.7,-9999.0,'1111122,1111122,1111122' 
COAPS,ioos:station:COAPS:N7:2,2012-04-29T03:47:00Z,29.6619,-84.3731,19.0,0.02,251.2,-9999.0,'1111122,1111122,1111122' 
COAPS,ioos:station:COAPS:N7:2,2012-04-29T03:48:00Z,29.6619,-84.3731,19.0,0.02,251.2,-9999.0,'1111122,1111122,1111122' 
COAPS,ioos:station:COAPS:N7:2,2012-04-29T03:49:00Z,29.6619,-84.3731,19.0,0.02,251.3,-9999.0,'1111122,1111122,1111122' 
COAPS,ioos:station:COAPS:N7:2,2012-04-29T03:50:00Z,29.6619,-84.3731,19.0,0.02,251.0,-9999.0,'1111122,1111122,1111122' 
COAPS,ioos:station:COAPS:N7:2,2012-04-29T03:51:00Z,29.6619,-84.3731,19.0,0.02,249.6,-9999.0,'1111122,1111122,1111122' 
COAPS,ioos:station:COAPS:N7:2,2012-04-29T03:52:00Z,29.6619,-84.3731,19.0,0.02,249.3,-9999.0,'1111122,1111122,1111122' 
COAPS,ioos:station:COAPS:N7:2,2012-04-29T03:53:00Z,29.6619,-84.3731,19.0,0.02,250.0,-9999.0,'1111122,1111122,1111122' 
COAPS,ioos:station:COAPS:N7:2,2012-04-29T03:54:00Z,29.6619,-84.3731,19.0,0.02,249.3,-9999.0,'1111122,1111122,1111122' 
COAPS,ioos:station:COAPS:N7:2,2012-04-29T03:55:00Z,29.6619,-84.3731,19.0,0.02,248.9,-9999.0,'1111122,1111122,1111122' 
COAPS,ioos:station:COAPS:N7:2,2012-04-29T03:56:00Z,29.6619,-84.3731,19.0,0.02,249.0,-9999.0,'1111122,1111122,1111122' 
COAPS,ioos:station:COAPS:N7:2,2012-04-29T03:57:00Z,29.6619,-84.3731,19.0,0.02,248.8,-9999.0,'1111122,1111122,1111122' 
COAPS,ioos:station:COAPS:N7:2,2012-04-29T03:58:00Z,29.6619,-84.3731,19.0,0.02,249.0,-9999.0,'1111122,1111122,1111122' 
COAPS,ioos:station:COAPS:N7:2,2012-04-29T03:59:00Z,29.6619,-84.3731,19.0,0.02,251.3,-9999.0,'1111122,1111122,1111122' 
COAPS,ioos:station:COAPS:N7:2,2012-04-29T04:00:00Z,29.6619,-84.3731,19.0,0.02,249.8,-9999.0,'1111122,1111122,1111122' 
COAPS,ioos:station:COAPS:N7:2,2012-04-29T04:01:00Z,29.6619,-84.3731,19.0,0.02,251.6,-9999.0,'1111122,1111122,1111122' 
COAPS,ioos:station:COAPS:N7:2,2012-04-29T04:02:00Z,29.6619,-84.3731,19.0,0.02,252.1,-9999.0,'1111122,1111122,1111122' 
COAPS,ioos:station:COAPS:N7:2,2012-04-29T04:03:00Z,29.6619,-84.3731,19.0,0.02,252.6,-9999.0,'1111122,1111122,1111122' 
COAPS,ioos:station:COAPS:N7:2,2012-04-29T04:04:00Z,29.6619,-84.3731,19.0,0.02,250.8,-9999.0,'1111122,1111122,1111122' 
COAPS,ioos:station:COAPS:N7:2,2012-04-29T04:05:00Z,29.6619,-84.3731,19.0,0.02,251.5,-9999.0,'1111122,1111122,1111122' 
COAPS,ioos:station:COAPS:N7:2,2012-04-29T04:06:00Z,29.6619,-84.3731,19.0,0.02,252.2,-9999.0,'1111122,1111122,1111122' 
COAPS,ioos:station:COAPS:N7:2,2012-04-29T04:07:00Z,29.6619,-84.3731,19.0,0.02,252.4,-9999.0,'1111122,1111122,1111122' 
COAPS,ioos:station:COAPS:N7:2,2012-04-29T04:08:00Z,29.6619,-84.3731,19.0,0.02,252.2,-9999.0,'1111122,1111122,1111122' 
COAPS,ioos:station:COAPS:N7:2,2012-04-29T04:09:00Z,29.6619,-84.3731,19.0,0.02,252.0,-9999.0,'1111122,1111122,1111122' 
COAPS,ioos:station:COAPS:N7:2,2012-04-29T04:10:00Z,29.6619,-84.3731,19.0,0.02,252.2,-9999.0,'1111122,1111122,1111122' 
COAPS,ioos:station:COAPS:N7:2,2012-04-29T04:11:00Z,29.6619,-84.3731,19.0,0.02,250.2,-9999.0,'1111122,1111122,1111122' 
COAPS,ioos:station:COAPS:N7:2,2012-04-29T04:12:00Z,29.6619,-84.3731,19.0,0.02,250.5,-9999.0,'1111122,1111122,1111122' 
COAPS,ioos:station:COAPS:N7:2,2012-04-29T04:13:00Z,29.6619,-84.3731,19.0,0.02,250.2,-9999.0,'1111122,1111122,1111122' 
COAPS,ioos:station:COAPS:N7:2,2012-04-29T04:14:00Z,29.6619,-84.3731,19.0,0.02,250.3,-9999.0,'1111122,1111122,1111122' 
COAPS,ioos:station:COAPS:N7:2,2012-04-29T04:15:00Z,29.6619,-84.3731,19.0,0.02,250.9,-9999.0,'1111122,1111122,1111122' 
COAPS,ioos:station:COAPS:N7:2,2012-04-29T04:16:00Z,29.6619,-84.3731,19.0,0.02,253.4,-9999.0,'1111122,1111122,1111122' 
COAPS,ioos:station:COAPS:N7:2,2012-04-29T04:17:00Z,29.6619,-84.3731,19.0,0.02,254.6,-9999.0,'1111122,1111122,1111122' 
COAPS,ioos:station:COAPS:N7:2,2012-04-29T04:18:00Z,29.6619,-84.3731,19.0,0.02,256.7,-9999.0,'1111122,1111122,1111122' 
COAPS,ioos:station:COAPS:N7:2,2012-04-29T04:19:00Z,29.6619,-84.3731,19.0,0.02,256.1,-9999.0,'1111122,1111122,1111122' 
COAPS,ioos:station:COAPS:N7:2,2012-04-29T04:20:00Z,29.6619,-84.3731,19.0,0.02,257.4,-9999.0,'1111122,1111122,1111122' 
COAPS,ioos:station:COAPS:N7:2,2012-04-29T04:21:00Z,29.6619,-84.3731,19.0,0.02,256.1,-9999.0,'1111122,1111122,1111122' 
COAPS,ioos:station:COAPS:N7:2,2012-04-29T04:22:00Z,29.6619,-84.3731,19.0,0.02,256.2,-9999.0,'1111122,1111122,1111122' 
COAPS,ioos:station:COAPS:N7:2,2012-04-29T04:23:00Z,29.6619,-84.3731,19.0,0.02,256.1,-9999.0,'1111122,1111122,1111122' 
COAPS,ioos:station:COAPS:N7:2,2012-04-29T04:24:00Z,29.6619,-84.3731,19.0,0.02,256.5,-9999.0,'1111122,1111122,1111122' 
COAPS,ioos:station:COAPS:N7:2,2012-04-29T04:25:00Z,29.6619,-84.3731,19.0,0.02,256.4,-9999.0,'1111122,1111122,1111122' 
COAPS,ioos:station:COAPS:N7:2,2012-04-29T04:26:00Z,29.6619,-84.3731,19.0,0.02,256.3,-9999.0,'1111122,1111122,1111122' 
COAPS,ioos:station:COAPS:N7:2,2012-04-29T04:27:00Z,29.6619,-84.3731,19.0,0.02,256.0,-9999.0,'1111122,1111122,1111122' 
COAPS,ioos:station:COAPS:N7:2,2012-04-29T04:28:00Z,29.6619,-84.3731,19.0,0.02,254.7,-9999.0,'1111122,1111122,1111122' 
COAPS,ioos:station:COAPS:N7:2,2012-04-29T04:29:00Z,29.6619,-84.3731,19.0,0.02,251.5,-9999.0,'1111122,1111122,1111122' 
COAPS,ioos:station:COAPS:N7:2,2012-04-29T04:30:00Z,29.6619,-84.3731,19.0,0.02,251.5,-9999.0,'1111122,1111122,1111122' 
COAPS,ioos:station:COAPS:N7:2,2012-04-29T04:31:00Z,29.6619,-84.3731,19.0,0.02,250.6,-9999.0,'1111122,1111122,1111122' 
COAPS,ioos:station:COAPS:N7:2,2012-04-29T04:32:00Z,29.6619,-84.3731,19.0,0.02,251.9,-9999.0,'1111122,1111122,1111122' 
COAPS,ioos:station:COAPS:N7:2,2012-04-29T04:33:00Z,29.6619,-84.3731,19.0,0.02,251.4,-9999.0,'1111122,1111122,1111122' 
COAPS,ioos:station:COAPS:N7:2,2012-04-29T04:34:00Z,29.6619,-84.3731,19.0,0.02,251.3,-9999.0,'1111122,1111122,1111122' 
COAPS,ioos:station:COAPS:N7:2,2012-04-29T04:35:00Z,29.6619,-84.3731,19.0,0.02,250.2,-9999.0,'1111122,1111122,1111122' 
COAPS,ioos:station:COAPS:N7:2,2012-04-29T04:36:00Z,29.6619,-84.3731,19.0,0.02,251.4,-9999.0,'1111122,1111122,1111122' 
COAPS,ioos:station:COAPS:N7:2,2012-04-29T04:37:00Z,29.6619,-84.3731,19.0,0.02,252.9,-9999.0,'1111122,1111122,1111122' 
COAPS,ioos:station:COAPS:N7:2,2012-04-29T04:38:00Z,29.6619,-84.3731,19.0,0.02,253.0,-9999.0,'1111122,1111122,1111122' 
COAPS,ioos:station:COAPS:N7:2,2012-04-29T04:39:00Z,29.6619,-84.3731,19.0,0.02,252.1,-9999.0,'1111122,1111122,1111122' 
COAPS,ioos:station:COAPS:N7:2,2012-04-29T04:40:00Z,29.6619,-84.3731,19.0,0.02,250.6,-9999.0,'1111122,1111122,1111122' 
COAPS,ioos:station:COAPS:N7:2,2012-04-29T04:41:00Z,29.6619,-84.3731,19.0,0.02,248.8,-9999.0,'1111122,1111122,1111122' 
COAPS,ioos:station:COAPS:N7:2,2012-04-29T04:42:00Z,29.6619,-84.3731,19.0,0.02,249.2,-9999.0,'1111122,1111122,1111122' 
COAPS,ioos:station:COAPS:N7:2,2012-04-29T04:43:00Z,29.6619,-84.3731,19.0,0.02,249.7,-9999.0,'1111122,1111122,1111122' 
COAPS,ioos:station:COAPS:N7:2,2012-04-29T04:44:00Z,29.6619,-84.3731,19.0,0.02,249.3,-9999.0,'1111122,1111122,1111122' 
COAPS,ioos:station:COAPS:N7:2,2012-04-29T04:45:00Z,29.6619,-84.3731,19.0,0.02,249.3,-9999.0,'1111122,1111122,1111122' 
COAPS,ioos:station:COAPS:N7:2,2012-04-29T04:46:00Z,29.6619,-84.3731,19.0,0.02,248.8,-9999.0,'1111122,1111122,1111122' 
COAPS,ioos:station:COAPS:N7:2,2012-04-29T04:47:00Z,29.6619,-84.3731,19.0,0.02,248.8,-9999.0,'1111122,1111122,1111122' 
COAPS,ioos:station:COAPS:N7:2,2012-04-29T04:48:00Z,29.6619,-84.3731,19.0,0.02,249.4,-9999.0,'1111122,1111122,1111122' 
COAPS,ioos:station:COAPS:N7:2,2012-04-29T04:49:00Z,29.6619,-84.3731,19.0,0.02,250.6,-9999.0,'1111122,1111122,1111122' 
COAPS,ioos:station:COAPS:N7:2,2012-04-29T04:50:00Z,29.6619,-84.3731,19.0,0.02,250.1,-9999.0,'1111122,1111122,1111122' 
COAPS,ioos:station:COAPS:N7:2,2012-04-29T04:51:00Z,29.6619,-84.3731,19.0,0.02,249.8,-9999.0,'1111122,1111122,1111122' 
COAPS,ioos:station:COAPS:N7:2,2012-04-29T04:52:00Z,29.6619,-84.3731,19.0,0.02,249.6,-9999.0,'1111122,1111122,1111122' 
COAPS,ioos:station:COAPS:N7:2,2012-04-29T04:53:00Z,29.6619,-84.3731,19.0,0.02,249.5,-9999.0,'1111122,1111122,1111122' 
COAPS,ioos:station:COAPS:N7:2,2012-04-29T04:54:00Z,29.6619,-84.3731,19.0,0.02,249.1,-9999.0,'1111122,1111122,1111122' 
COAPS,ioos:station:COAPS:N7:2,2012-04-29T04:55:00Z,29.6619,-84.3731,19.0,0.02,250.0,-9999.0,'1111122,1111122,1111122' 
COAPS,ioos:station:COAPS:N7:2,2012-04-29T04:56:00Z,29.6619,-84.3731,19.0,0.02,250.0,-9999.0,'1111122,1111122,1111122' 
COAPS,ioos:station:COAPS:N7:2,2012-04-29T04:57:00Z,29.6619,-84.3731,19.0,0.02,249.3,-9999.0,'1111122,1111122,1111122' 
COAPS,ioos:station:COAPS:N7:2,2012-04-29T04:58:00Z,29.6619,-84.3731,19.0,0.02,250.4,-9999.0,'1111122,1111122,1111122' 
COAPS,ioos:station:COAPS:N7:2,2012-04-29T04:59:00Z,29.6619,-84.3731,19.0,0.02,249.9,-9999.0,'1111122,1111122,1111122' 
COAPS,ioos:station:COAPS:N7:2,2012-04-29T05:00:00Z,29.6619,-84.3731,19.0,0.02,248.8,-9999.0,'1111122,1111122,1111122' 
COAPS,ioos:station:COAPS:N7:2,2012-04-29T05:01:00Z,29.6619,-84.3731,19.0,0.02,249.7,-9999.0,'1111122,1111122,1111122' 
COAPS,ioos:station:COAPS:N7:2,2012-04-29T05:02:00Z,29.6619,-84.3731,19.0,0.02,250.1,-9999.0,'1111122,1111122,1111122' 
COAPS,ioos:station:COAPS:N7:2,2012-04-29T05:03:00Z,29.6619,-84.3731,19.0,0.02,250.2,-9999.0,'1111122,1111122,1111122' 
COAPS,ioos:station:COAPS:N7:2,2012-04-29T05:04:00Z,29.6619,-84.3731,19.0,0.02,250.9,-9999.0,'1111122,1111122,1111122' 
COAPS,ioos:station:COAPS:N7:2,2012-04-29T05:05:00Z,29.6619,-84.3731,19.0,0.02,252.0,-9999.0,'1111122,1111122,1111122' 
COAPS,ioos:station:COAPS:N7:2,2012-04-29T05:06:00Z,29.6619,-84.3731,19.0,0.02,252.8,-9999.0,'1111122,1111122,1111122' 
COAPS,ioos:station:COAPS:N7:2,2012-04-29T05:07:00Z,29.6619,-84.3731,19.0,0.02,254.9,-9999.0,'1111122,1111122,1111122' 
COAPS,ioos:station:COAPS:N7:2,2012-04-29T05:08:00Z,29.6619,-84.3731,19.0,0.02,254.7,-9999.0,'1111122,1111122,1111122' 
COAPS,ioos:station:COAPS:N7:2,2012-04-29T05:09:00Z,29.6619,-84.3731,19.0,0.02,255.8,-9999.0,'1111122,1111122,1111122' 
COAPS,ioos:station:COAPS:N7:2,2012-04-29T05:10:00Z,29.6619,-84.3731,19.0,0.02,252.6,-9999.0,'1111122,1111122,1111122' 
COAPS,ioos:station:COAPS:N7:2,2012-04-29T05:11:00Z,29.6619,-84.3731,19.0,0.02,251.8,-9999.0,'1111122,1111122,1111122' 
COAPS,ioos:station:COAPS:N7:2,2012-04-29T05:12:00Z,29.6619,-84.3731,19.0,0.02,252.3,-9999.0,'1111122,1111122,1111122' 
COAPS,ioos:station:COAPS:N7:2,2012-04-29T05:13:00Z,29.6619,-84.3731,19.0,0.02,251.9,-9999.0,'1111122,1111122,1111122' 
COAPS,ioos:station:COAPS:N7:2,2012-04-29T05:14:00Z,29.6619,-84.3731,19.0,0.02,251.5,-9999.0,'1111122,1111122,1111122' 
COAPS,ioos:station:COAPS:N7:2,2012-04-29T05:15:00Z,29.6619,-84.3731,19.0,0.02,252.9,-9999.0,'1111122,1111122,1111122' 
COAPS,ioos:station:COAPS:N7:2,2012-04-29T05:16:00Z,29.6619,-84.3731,19.0,0.02,249.8,-9999.0,'1111122,1111122,1111122' 
COAPS,ioos:station:COAPS:N7:2,2012-04-29T05:17:00Z,29.6619,-84.3731,19.0,0.02,249.7,-9999.0,'1111122,1111122,1111122' 
COAPS,ioos:station:COAPS:N7:2,2012-04-29T05:18:00Z,29.6619,-84.3731,19.0,0.02,249.2,-9999.0,'1111122,1111122,1111122' 
COAPS,ioos:station:COAPS:N7:2,2012-04-29T05:19:00Z,29.6619,-84.3731,19.0,0.02,250.6,-9999.0,'1111122,1111122,1111122' 
COAPS,ioos:station:COAPS:N7:2,2012-04-29T05:20:00Z,29.6619,-84.3731,19.0,0.02,250.5,-9999.0,'1111122,1111122,1111122' 
COAPS,ioos:station:COAPS:N7:2,2012-04-29T05:21:00Z,29.6619,-84.3731,19.0,0.02,253.4,-9999.0,'1111122,1111122,1111122' 
COAPS,ioos:station:COAPS:N7:2,2012-04-29T05:22:00Z,29.6619,-84.3731,19.0,0.02,252.3,-9999.0,'1111122,1111122,1111122' 
COAPS,ioos:station:COAPS:N7:2,2012-04-29T05:23:00Z,29.6619,-84.3731,19.0,0.02,252.8,-9999.0,'1111122,1111122,1111122' 
COAPS,ioos:station:COAPS:N7:2,2012-04-29T05:24:00Z,29.6619,-84.3731,19.0,0.02,253.1,-9999.0,'1111122,1111122,1111122' 
COAPS,ioos:station:COAPS:N7:2,2012-04-29T05:25:00Z,29.6619,-84.3731,19.0,0.02,253.4,-9999.0,'1111122,1111122,1111122' 
COAPS,ioos:station:COAPS:N7:2,2012-04-29T05:26:00Z,29.6619,-84.3731,19.0,0.02,253.6,-9999.0,'1111122,1111122,1111122' 
COAPS,ioos:station:COAPS:N7:2,2012-04-29T05:27:00Z,29.6619,-84.3731,19.0,0.02,255.7,-9999.0,'1111122,1111122,1111122' 